OpenBCM V1.07b12 (Linux)

Packet Radio Mailbox

DB0FHN

[JN59NK Nuernberg]

 Login: GUEST





  
CX7BY  > KEPS     11.04.03 05:29l 151 Lines 3940 Bytes #999 (0) @ AMSAT
BID : ORB03100.O
Read: DB0FHN GUEST
Subj: Orbital Elements  03100.OSCAR
Path: DB0FHN<DB0RGB<DB0MRW<DB0HOT<OK0PBX<OK0PHK<OK0NAG<OK0PPL<RZ6HXA<IK1ZNW<
      ON0AR<IW8PGT<SP7MGD<ON0BEL<ON4HU<CX2ACB<CX7BY
Sent: 030411/0310Z @:CX7BY.MVD.URY.SA #:35747 [Montevideo] FBB $:ORB03100.O
From: CX7BY@CX7BY.MVD.URY.SA
To  : KEPS@AMSAT


HR AMSAT ORBITAL ELEMENTS FOR OSCAR SATELLITES
FROM WA5QGD FORT WORTH,TX April 10, 2003
SEND SUBSCRIBE/UNSUBSCRIBE TO majordomo@amsat.org ONLY
BID: ORB03100.O
TO ALL RADIO AMATEURS BT

Satellite: AO-07
Catalog number: 07530
Epoch time:      03099.65058936
Element set:    0185
Inclination:      101.7491 deg
RA of node:       146.9463 deg
Eccentricity:    0.0012045
Arg of perigee:   342.0311 deg
Mean anomaly:     018.0331 deg
Mean motion:   12.53565126 rev/day
Decay rate:       -2.9e-07 rev/day^2
Epoch rev:           29946
Checksum:              286

Satellite: AO-10
Catalog number: 14129
Epoch time:      03091.17918933
Element set:    0924
Inclination:      026.0433 deg
RA of node:       157.4551 deg
Eccentricity:    0.6010823
Arg of perigee:   340.2144 deg
Mean anomaly:     004.1663 deg
Mean motion:   02.05867447 rev/day
Decay rate:       -2.4e-07 rev/day^2
Epoch rev:           14889
Checksum:              282

Satellite: UO-11
Catalog number: 14781
Epoch time:      03099.97745991
Element set:    0120
Inclination:      098.1245 deg
RA of node:       074.3202 deg
Eccentricity:    0.0010680
Arg of perigee:   052.0426 deg
Mean anomaly:     308.1736 deg
Mean motion:   14.78161773 rev/day
Decay rate:      2.042e-05 rev/day^2
Epoch rev:           02368
Checksum:              288

Satellite: RS-10/11
Catalog number: 18129
Epoch time:      03099.87768720
Element set:    0240
Inclination:      082.9203 deg
RA of node:       109.3489 deg
Eccentricity:    0.0013452
Arg of perigee:   085.1272 deg
Mean anomaly:     275.1417 deg
Mean motion:   13.72706570 rev/day
Decay rate:        8.0e-07 rev/day^2
Epoch rev:           79141
Checksum:              300

Satellite: FO-20
Catalog number: 20480
Epoch time:      03100.29667424
Element set:     475
Inclination:       99.0552 deg
RA of node:        53.5272 deg
Eccentricity:    0.0539450
Arg of perigee:   248.9659 deg
Mean anomaly:     105.2961 deg
Mean motion:   12.83331648 rev/day
Decay rate:        2.0e-07 rev/day^2
Epoch rev:           61702
Checksum:              291

Satellite: RS-12/13
Catalog number: 21089
Epoch time:      03099.62692099
Element set:    0512
Inclination:      082.9218 deg
RA of node:       144.2487 deg
Eccentricity:    0.0029772
Arg of perigee:   143.8728 deg
Mean anomaly:     216.4447 deg
Mean motion:   13.74409828 rev/day
Decay rate:        8.4e-07 rev/day^2
Epoch rev:           61066
Checksum:              335

Satellite: RS-15
Catalog number: 23439
Epoch time:      03099.93676096
Element set:    0711
Inclination:      064.8174 deg
RA of node:       320.0379 deg
Eccentricity:    0.0146494
Arg of perigee:   105.3100 deg
Mean anomaly:     256.4068 deg
Mean motion:   11.27548695 rev/day
Decay rate:       -1.3e-07 rev/day^2
Epoch rev:           34127
Checksum:              307

Satellite: FO-29
Catalog number: 24278
Epoch time:      03100.86831968
Element set:     573
Inclination:       98.5441 deg
RA of node:       245.1392 deg
Eccentricity:    0.0351504
Arg of perigee:    83.5168 deg
Mean anomaly:     280.5859 deg
Mean motion:   13.52878677 rev/day
Decay rate:        6.2e-07 rev/day^2
Epoch rev:           32824
Checksum:              337

Satellite: SO-33
Catalog number: 25509
Epoch time:      03100.35535007
Element set:     820
Inclination:       31.4301 deg
RA of node:       226.3477 deg
Eccentricity:    0.0357273
Arg of perigee:    26.3231 deg
Mean anomaly:     335.5085 deg
Mean motion:   14.27480293 rev/day
Decay rate:       4.42e-06 rev/day^2
Epoch rev:           23257
Checksum:              264

Satellite: AO-40
Catalog number: 26609
Epoch time:      03093.12981620
Element set:     323
Inclination:        8.4077 deg
RA of node:        56.1468 deg
Eccentricity:    0.7953400
Arg of perigee:   160.1620 deg
Mean anomaly:     273.2516 deg
Mean motion:    1.25596418 rev/day
Decay rate:      -3.66e-06 rev/day^2
Epoch rev:            1113
Checksum:              278



Read previous mail | Read next mail


 16.09.2025 11:06:44lGo back Go up